Time,TemperatureF,DewpointF,PressureIn,WindDirection,WindDirectionDegrees,WindSpeedMPH,WindSpeedGustMPH,Humidity,HourlyPrecipIn,Conditions,Clouds,dailyrainin,SoftwareType,DateUTC
2013-11-22 00:01:00,58.1,54.9,29.56,SSW,197,0.0,7.4,89,0.00,,---,0.00,VWS V14.00,2013-11-22 06:01:00,
2013-11-22 00:06:00,58.3,55.1,29.56,SSW,199,5.4,7.4,89,0.00,,---,0.00,VWS V14.00,2013-11-22 06:06:00,
2013-11-22 00:11:00,58.3,55.1,29.56,South,185,4.0,7.4,89,0.00,,---,0.00,VWS V14.00,2013-11-22 06:11:00,
2013-11-22 00:16:00,58.3,55.1,29.56,SSW,194,5.4,7.4,89,0.00,,---,0.00,VWS V14.00,2013-11-22 06:16:00,
2013-11-22 00:21:00,58.5,55.2,29.53,South,181,5.4,8.2,89,0.00,,---,0.00,VWS V14.00,2013-11-22 06:21:00,
2013-11-22 00:26:00,58.5,55.2,29.53,SW,222,4.0,5.8,89,0.00,,---,0.00,VWS V14.00,2013-11-22 06:26:00,
2013-11-22 00:31:00,58.5,55.2,29.53,SSW,198,5.4,8.2,89,0.00,,---,0.00,VWS V14.00,2013-11-22 06:31:00,
2013-11-22 00:36:00,58.5,55.2,29.53,SSW,212,4.7,11.5,89,0.00,,---,0.00,VWS V14.00,2013-11-22 06:36:00,
2013-11-22 00:41:00,58.3,55.1,29.53,West,267,3.4,6.6,89,0.00,,---,0.00,VWS V14.00,2013-11-22 06:41:00,
2013-11-22 00:46:00,58.3,55.1,29.53,SSW,207,3.4,5.8,89,0.00,,---,0.00,VWS V14.00,2013-11-22 06:46:00,
2013-11-22 00:51:00,58.3,55.1,29.56,SSW,207,4.0,5.8,89,0.00,,---,0.00,VWS V14.00,2013-11-22 06:51:00,
2013-11-22 00:56:00,58.3,55.1,29.56,SSW,200,5.4,7.4,89,0.00,,---,0.00,VWS V14.00,2013-11-22 06:56:00,
2013-11-22 01:01:00,58.3,55.1,29.56,SSW,211,0.0,1.0,89,0.00,,---,0.00,VWS V14.00,2013-11-22 07:01:00,
2013-11-22 01:06:00,58.3,55.1,29.56,SSW,200,5.4,7.4,89,0.00,,---,0.00,VWS V14.00,2013-11-22 07:06:00,
2013-11-22 01:11:00,58.3,55.1,29.56,SSW,201,4.7,6.6,89,0.00,,---,0.00,VWS V14.00,2013-11-22 07:11:00,
2013-11-22 01:16:00,58.3,55.1,29.56,SSW,200,0.0,5.0,89,0.00,,---,0.00,VWS V14.00,2013-11-22 07:16:00,
2013-11-22 01:21:00,58.3,55.1,29.56,SSW,195,0.0,1.0,89,0.00,,---,0.00,VWS V14.00,2013-11-22 07:21:00,
2013-11-22 01:26:00,58.3,55.1,29.56,South,190,0.0,1.0,89,0.00,,---,0.00,VWS V14.00,2013-11-22 07:26:00,
2013-11-22 01:31:00,58.3,55.1,29.56,SSW,194,0.0,1.0,89,0.00,,---,0.00,VWS V14.00,2013-11-22 07:31:00,
2013-11-22 01:36:00,58.3,55.1,29.56,South,172,0.0,1.0,89,0.00,,---,0.00,VWS V14.00,2013-11-22 07:36:00,
2013-11-22 01:41:00,58.3,55.1,29.56,SSW,198,0.0,1.0,89,0.00,,---,0.00,VWS V14.00,2013-11-22 07:41:00,
2013-11-22 01:46:00,58.1,54.9,29.56,SSW,198,0.0,1.0,89,0.00,,---,0.00,VWS V14.00,2013-11-22 07:46:00,
2013-11-22 01:51:00,58.1,54.9,29.56,South,189,0.0,1.0,89,0.00,,---,0.00,VWS V14.00,2013-11-22 07:51:00,
2013-11-22 01:56:00,58.1,54.9,29.56,SSW,198,0.0,1.0,89,0.00,,---,0.00,VWS V14.00,2013-11-22 07:56:00,
2013-11-22 02:01:00,58.1,54.9,29.56,SSW,201,0.0,1.0,89,0.00,,---,0.00,VWS V14.00,2013-11-22 08:01:00,
2013-11-22 02:06:00,58.1,54.9,29.56,South,182,0.0,5.8,89,0.00,,---,0.00,VWS V14.00,2013-11-22 08:06:00,
2013-11-22 02:11:00,58.1,54.9,29.56,SSW,200,0.0,1.0,89,0.00,,---,0.00,VWS V14.00,2013-11-22 08:11:00,
2013-11-22 02:16:00,58.1,54.9,29.56,SW,221,0.0,1.0,89,0.00,,---,0.00,VWS V14.00,2013-11-22 08:16:00,
2013-11-22 02:21:00,58.1,54.9,29.56,SW,221,0.0,1.0,89,0.00,,---,0.00,VWS V14.00,2013-11-22 08:21:00,
2013-11-22 02:26:00,58.1,54.9,29.56,SW,221,0.0,1.0,89,0.00,,---,0.00,VWS V14.00,2013-11-22 08:26:00,
2013-11-22 02:31:00,58.1,54.9,29.56,South,178,0.0,1.0,89,0.00,,---,0.00,VWS V14.00,2013-11-22 08:31:00,
2013-11-22 02:36:00,58.1,54.9,29.56,South,178,0.0,1.0,89,0.71,,---,0.08,VWS V14.00,2013-11-22 08:36:00,
2013-11-22 02:41:00,58.1,54.9,29.56,South,178,0.0,1.0,89,0.71,,---,0.08,VWS V14.00,2013-11-22 08:41:00,
2013-11-22 02:46:00,58.1,54.9,29.56,South,178,0.0,1.0,89,0.71,,---,0.08,VWS V14.00,2013-11-22 08:46:00,
2013-11-22 02:51:00,57.9,54.7,29.56,South,179,0.0,1.0,89,0.71,,---,0.08,VWS V14.00,2013-11-22 08:51:00,
2013-11-22 02:56:00,57.9,54.7,29.56,South,181,0.0,1.0,89,0.71,,---,0.08,VWS V14.00,2013-11-22 08:56:00,
2013-11-22 03:01:00,57.9,54.7,29.56,South,189,0.0,1.0,89,0.71,,---,0.08,VWS V14.00,2013-11-22 09:01:00,
2013-11-22 03:06:00,57.9,54.7,29.56,South,170,0.0,1.0,89,0.71,,---,0.08,VWS V14.00,2013-11-22 09:06:00,
2013-11-22 03:11:00,57.9,54.7,29.56,South,175,0.0,1.0,89,0.71,,---,0.08,VWS V14.00,2013-11-22 09:11:00,
2013-11-22 03:16:00,57.7,54.5,29.56,SSW,212,0.0,1.0,89,0.71,,---,0.08,VWS V14.00,2013-11-22 09:16:00,
2013-11-22 03:21:00,57.7,54.5,29.56,SSW,212,0.0,1.0,89,0.08,,---,0.12,VWS V14.00,2013-11-22 09:21:00,
2013-11-22 03:26:00,57.7,54.5,29.56,SSW,211,0.0,1.0,89,0.08,,---,0.16,VWS V14.00,2013-11-22 09:26:00,
2013-11-22 03:31:00,57.7,54.8,29.56,SSW,211,0.0,1.0,90,0.08,,---,0.16,VWS V14.00,2013-11-22 09:31:00,
2013-11-22 03:36:00,57.7,54.8,29.56,South,174,0.0,1.0,90,0.08,,---,0.16,VWS V14.00,2013-11-22 09:36:00,
2013-11-22 03:41:00,57.7,54.8,29.56,South,174,0.0,1.0,90,0.31,,---,0.20,VWS V14.00,2013-11-22 09:41:00,
2013-11-22 03:46:00,57.7,54.8,29.56,South,174,0.0,1.0,90,0.31,,---,0.20,VWS V14.00,2013-11-22 09:46:00,
2013-11-22 03:51:00,57.7,54.8,29.56,South,174,0.0,1.0,90,0.20,,---,0.24,VWS V14.00,2013-11-22 09:51:00,
2013-11-22 03:56:00,57.7,54.8,29.56,South,174,0.0,1.0,90,0.20,,---,0.24,VWS V14.00,2013-11-22 09:56:00,
2013-11-22 04:01:00,57.7,54.8,29.56,South,174,0.0,1.0,90,0.20,,---,0.24,VWS V14.00,2013-11-22 10:01:00,
2013-11-22 04:06:00,57.6,54.7,29.56,South,174,0.0,1.0,90,0.20,,---,0.24,VWS V14.00,2013-11-22 10:06:00,
2013-11-22 04:11:00,57.6,54.7,29.56,South,174,0.0,1.0,90,0.20,,---,0.24,VWS V14.00,2013-11-22 10:11:00,
2013-11-22 04:16:00,57.6,54.7,29.56,SSW,213,0.0,1.0,90,0.20,,---,0.24,VWS V14.00,2013-11-22 10:16:00,
2013-11-22 04:21:00,57.6,54.7,29.56,SSW,213,0.0,1.0,90,0.16,,---,0.28,VWS V14.00,2013-11-22 10:21:00,
2013-11-22 04:26:00,57.6,55.0,29.56,SSW,213,0.0,1.0,91,0.16,,---,0.28,VWS V14.00,2013-11-22 10:26:00,
2013-11-22 04:31:00,57.6,55.0,29.56,SSW,213,0.0,1.0,91,0.16,,---,0.31,VWS V14.00,2013-11-22 10:31:00,
2013-11-22 04:42:00,57.6,55.0,29.56,SSW,213,0.0,1.0,91,0.24,,---,0.35,VWS V14.00,2013-11-22 10:42:00,
2013-11-22 04:47:00,57.6,55.0,29.56,SSW,213,0.0,1.0,91,0.24,,---,0.35,VWS V14.00,2013-11-22 10:47:00,
2013-11-22 04:52:00,57.6,55.0,29.56,SSW,213,0.0,1.0,91,0.16,,---,0.39,VWS V14.00,2013-11-22 10:52:00,
2013-11-22 04:57:00,57.6,55.0,29.56,SSW,213,0.0,1.0,91,0.16,,---,0.39,VWS V14.00,2013-11-22 10:57:00,
2013-11-22 05:02:00,57.6,55.0,29.56,SSW,213,0.0,1.0,91,0.16,,---,0.39,VWS V14.00,2013-11-22 11:02:00,
2013-11-22 05:07:00,57.6,55.0,29.56,SSW,213,0.0,1.0,91,0.16,,---,0.39,VWS V14.00,2013-11-22 11:07:00,
2013-11-22 05:12:00,57.6,55.3,29.56,SSW,213,0.0,1.0,92,0.16,,---,0.39,VWS V14.00,2013-11-22 11:12:00,
2013-11-22 05:17:00,57.6,55.3,29.56,SSW,213,0.0,1.0,92,0.16,,---,0.39,VWS V14.00,2013-11-22 11:17:00,
2013-11-22 05:22:00,57.6,55.3,29.56,SSW,213,0.0,1.0,92,0.16,,---,0.39,VWS V14.00,2013-11-22 11:22:00,
2013-11-22 05:27:00,57.6,55.3,29.56,SSW,213,0.0,1.0,92,0.16,,---,0.39,VWS V14.00,2013-11-22 11:27:00,
2013-11-22 05:32:00,57.6,55.3,29.56,SSW,213,0.0,1.0,92,0.16,,---,0.39,VWS V14.00,2013-11-22 11:32:00,
2013-11-22 05:37:00,57.6,55.3,29.56,SSW,213,0.0,1.0,92,0.16,,---,0.39,VWS V14.00,2013-11-22 11:37:00,
2013-11-22 05:42:00,57.6,55.3,29.56,SSW,213,0.0,1.0,92,0.16,,---,0.39,VWS V14.00,2013-11-22 11:42:00,
2013-11-22 05:47:00,57.6,55.3,29.56,SSW,213,0.0,1.0,92,0.16,,---,0.39,VWS V14.00,2013-11-22 11:47:00,
2013-11-22 05:52:00,57.4,55.1,29.59,SSW,213,0.0,1.0,92,0.16,,---,0.39,VWS V14.00,2013-11-22 11:52:00,
2013-11-22 05:57:00,57.6,55.6,29.59,SSW,213,0.0,1.0,93,0.16,,---,0.39,VWS V14.00,2013-11-22 11:57:00,
2013-11-22 06:02:00,57.4,55.4,29.59,SSW,213,0.0,1.0,93,0.16,,---,0.39,VWS V14.00,2013-11-22 12:02:00,
2013-11-22 06:07:00,57.4,55.4,29.56,SSW,213,0.0,1.0,93,0.16,,---,0.39,VWS V14.00,2013-11-22 12:07:00,
2013-11-22 06:12:00,57.4,55.4,29.56,SSW,213,0.0,1.0,93,0.16,,---,0.39,VWS V14.00,2013-11-22 12:12:00,
2013-11-22 06:17:00,57.4,55.4,29.56,SSW,213,0.0,1.0,93,0.16,,---,0.39,VWS V14.00,2013-11-22 12:17:00,
2013-11-22 06:22:00,57.4,55.4,29.59,SSW,213,0.0,1.0,93,0.16,,---,0.39,VWS V14.00,2013-11-22 12:22:00,
2013-11-22 06:27:00,57.4,55.4,29.59,SSW,213,0.0,1.0,93,0.16,,---,0.39,VWS V14.00,2013-11-22 12:27:00,
2013-11-22 06:32:00,57.6,55.6,29.59,SSW,213,0.0,1.0,93,0.16,,---,0.39,VWS V14.00,2013-11-22 12:32:00,
2013-11-22 06:37:00,57.6,55.6,29.59,SW,214,0.0,1.0,93,0.16,,---,0.39,VWS V14.00,2013-11-22 12:37:00,
2013-11-22 06:42:00,57.6,55.8,29.59,WSW,238,0.0,1.0,94,0.16,,---,0.39,VWS V14.00,2013-11-22 12:42:00,
2013-11-22 06:47:00,57.6,55.8,29.59,WNW,295,0.0,1.0,94,0.16,,---,0.39,VWS V14.00,2013-11-22 12:47:00,
2013-11-22 06:52:00,57.6,55.8,29.59,NW,326,0.0,1.0,94,0.16,,---,0.39,VWS V14.00,2013-11-22 12:52:00,
2013-11-22 06:57:00,57.6,55.8,29.59,WNW,283,4.0,5.8,94,0.16,,---,0.39,VWS V14.00,2013-11-22 12:57:00,
2013-11-22 07:02:00,57.6,55.8,29.59,NW,325,0.0,1.0,94,0.00,,---,0.39,VWS V14.00,2013-11-22 13:02:00,
2013-11-22 07:07:00,57.6,55.8,29.59,North,357,5.4,7.4,94,0.00,,---,0.39,VWS V14.00,2013-11-22 13:07:00,
2013-11-22 07:12:00,57.2,55.5,29.59,North,353,12.1,15.5,94,0.00,,---,0.39,VWS V14.00,2013-11-22 13:12:00,
2013-11-22 07:17:00,56.8,55.4,29.59,North,11,9.4,12.3,95,0.00,,---,0.39,VWS V14.00,2013-11-22 13:17:00,
2013-11-22 07:22:00,56.7,55.2,29.59,NNW,335,15.8,19.9,95,0.00,,---,0.39,VWS V14.00,2013-11-22 13:22:00,
2013-11-22 07:27:00,56.5,55.1,29.59,North,2,17.1,21.5,95,0.00,,---,0.39,VWS V14.00,2013-11-22 13:27:00,
2013-11-22 07:32:00,56.1,54.7,29.59,NNE,18,8.7,11.5,95,0.00,,---,0.39,VWS V14.00,2013-11-22 13:32:00,
2013-11-22 07:37:00,55.9,54.5,29.62,NE,34,8.1,10.7,95,0.00,,---,0.39,VWS V14.00,2013-11-22 13:37:00,
2013-11-22 07:42:00,55.9,54.5,29.62,NNE,23,10.1,13.1,95,0.00,,---,0.39,VWS V14.00,2013-11-22 13:42:00,
2013-11-22 07:47:00,55.9,54.5,29.62,NNE,30,12.1,15.5,95,0.00,,---,0.39,VWS V14.00,2013-11-22 13:47:00,
2013-11-22 07:52:00,55.6,54.2,29.62,NE,34,8.7,11.5,95,0.00,,---,0.39,VWS V14.00,2013-11-22 13:52:00,
2013-11-22 07:57:00,55.6,54.2,29.62,NNW,339,12.4,15.9,95,0.00,,---,0.39,VWS V14.00,2013-11-22 13:57:00,
2013-11-22 08:02:00,55.6,54.2,29.62,North,353,15.1,19.1,95,0.00,,---,0.39,VWS V14.00,2013-11-22 14:02:00,
2013-11-22 08:07:00,55.4,54.0,29.62,NNE,32,9.4,12.3,95,0.00,,---,0.39,VWS V14.00,2013-11-22 14:07:00,
2013-11-22 08:12:00,55.4,54.0,29.62,North,357,8.1,10.7,95,0.00,,---,0.39,VWS V14.00,2013-11-22 14:12:00,
2013-11-22 08:17:00,55.2,54.1,29.62,North,3,17.8,22.3,96,0.00,,---,0.39,VWS V14.00,2013-11-22 14:17:00,
2013-11-22 08:22:00,55.2,54.1,29.62,NNE,19,9.4,12.3,96,0.00,,---,0.39,VWS V14.00,2013-11-22 14:22:00,
2013-11-22 08:27:00,55.0,53.9,29.62,North,357,12.4,15.9,96,0.00,,---,0.39,VWS V14.00,2013-11-22 14:27:00,
2013-11-22 08:32:00,55.0,53.9,29.62,North,357,12.4,15.9,96,0.00,,---,0.39,VWS V14.00,2013-11-22 14:32:00,
2013-11-22 08:37:00,55.0,53.9,29.62,NNE,22,13.1,16.7,96,0.00,,---,0.39,VWS V14.00,2013-11-22 14:37:00,
2013-11-22 08:42:00,54.9,53.7,29.62,NNE,29,12.4,15.9,96,0.00,,---,0.39,VWS V14.00,2013-11-22 14:42:00,
2013-11-22 08:47:00,54.7,53.6,29.62,NNE,13,16.4,20.7,96,0.00,,---,0.43,VWS V14.00,2013-11-22 14:47:00,
2013-11-22 08:52:00,54.5,53.4,29.65,NNE,31,23.2,28.8,96,0.00,,---,0.43,VWS V14.00,2013-11-22 14:52:00,
2013-11-22 08:57:00,54.5,53.4,29.65,North,0,13.1,16.7,96,0.00,,---,0.43,VWS V14.00,2013-11-22 14:57:00,
2013-11-22 09:02:00,54.3,53.2,29.65,NNE,12,12.4,15.9,96,0.00,,---,0.43,VWS V14.00,2013-11-22 15:02:00,
2013-11-22 09:07:00,54.1,53.0,29.65,North,353,12.4,17.5,96,0.00,,---,0.43,VWS V14.00,2013-11-22 15:07:00,
2013-11-22 09:12:00,54.1,53.0,29.65,North,353,9.4,12.3,96,0.00,,---,0.43,VWS V14.00,2013-11-22 15:12:00,
2013-11-22 09:17:00,54.1,53.0,29.65,NNE,15,11.4,15.5,96,0.00,,---,0.43,VWS V14.00,2013-11-22 15:17:00,
2013-11-22 09:22:00,54.0,52.8,29.65,North,353,11.4,14.7,96,0.00,,---,0.43,VWS V14.00,2013-11-22 15:22:00,
2013-11-22 09:27:00,53.8,52.7,29.65,North,353,12.1,15.5,96,0.00,,---,0.43,VWS V14.00,2013-11-22 15:27:00,
2013-11-22 09:32:00,53.8,52.7,29.65,North,357,13.1,16.7,96,0.00,,---,0.43,VWS V14.00,2013-11-22 15:32:00,
2013-11-22 09:37:00,53.6,52.5,29.65,North,357,13.1,16.7,96,0.00,,---,0.43,VWS V14.00,2013-11-22 15:37:00,
2013-11-22 09:42:00,53.6,52.5,29.65,NNE,21,12.1,15.5,96,0.00,,---,0.43,VWS V14.00,2013-11-22 15:42:00,
2013-11-22 09:47:00,53.6,52.2,29.65,NNE,17,12.1,15.5,95,0.00,,---,0.43,VWS V14.00,2013-11-22 15:47:00,
2013-11-22 09:52:00,53.6,52.2,29.68,North,0,8.7,11.5,95,0.00,,---,0.43,VWS V14.00,2013-11-22 15:52:00,
2013-11-22 09:57:00,53.6,52.2,29.68,North,353,12.4,15.9,95,0.00,,---,0.43,VWS V14.00,2013-11-22 15:57:00,
2013-11-22 10:02:00,53.4,52.3,29.68,North,7,9.4,12.3,96,0.00,,---,0.43,VWS V14.00,2013-11-22 16:02:00,
2013-11-22 10:07:00,53.4,52.3,29.68,NNW,344,15.1,19.1,96,0.00,,---,0.43,VWS V14.00,2013-11-22 16:07:00,
2013-11-22 10:12:00,53.4,52.3,29.68,North,0,12.1,15.5,96,0.00,,---,0.43,VWS V14.00,2013-11-22 16:12:00,
2013-11-22 10:17:00,53.2,52.1,29.68,North,353,15.1,19.1,96,0.00,,---,0.43,VWS V14.00,2013-11-22 16:17:00,
2013-11-22 10:22:00,53.2,52.1,29.68,North,357,8.7,12.3,96,0.00,,---,0.43,VWS V14.00,2013-11-22 16:22:00,
2013-11-22 10:27:00,53.1,52.0,29.68,NNW,348,9.4,12.3,96,0.00,,---,0.43,VWS V14.00,2013-11-22 16:27:00,
2013-11-22 10:32:00,53.1,52.0,29.68,NNW,327,9.4,12.3,96,0.00,,---,0.43,VWS V14.00,2013-11-22 16:32:00,
2013-11-22 10:37:00,52.9,51.8,29.68,NNE,32,11.4,14.7,96,0.00,,---,0.43,VWS V14.00,2013-11-22 16:37:00,
2013-11-22 10:42:00,52.7,51.6,29.68,NW,305,11.4,14.7,96,0.00,,---,0.43,VWS V14.00,2013-11-22 16:42:00,
2013-11-22 10:47:00,52.5,51.1,29.68,NNE,27,12.1,16.7,95,0.00,,---,0.43,VWS V14.00,2013-11-22 16:47:00,
2013-11-22 10:52:00,52.5,51.1,29.68,North,0,12.4,15.9,95,0.00,,---,0.43,VWS V14.00,2013-11-22 16:52:00,
2013-11-22 10:57:00,52.2,50.8,29.68,North,353,13.1,19.9,95,0.00,,---,0.43,VWS V14.00,2013-11-22 16:57:00,
2013-11-22 11:02:00,52.2,50.8,29.68,North,10,8.1,10.7,95,0.00,,---,0.43,VWS V14.00,2013-11-22 17:02:00,
2013-11-22 11:07:00,52.0,50.6,29.68,North,357,15.1,19.1,95,0.00,,---,0.43,VWS V14.00,2013-11-22 17:07:00,
2013-11-22 11:12:00,51.8,50.4,29.68,NNE,21,13.1,16.7,95,0.00,,---,0.43,VWS V14.00,2013-11-22 17:12:00,
2013-11-22 11:17:00,51.6,50.2,29.68,North,357,16.4,20.7,95,0.00,,---,0.43,VWS V14.00,2013-11-22 17:17:00,
2013-11-22 11:22:00,51.6,50.2,29.68,North,357,9.4,12.3,95,0.00,,---,0.43,VWS V14.00,2013-11-22 17:22:00,
2013-11-22 11:27:00,51.6,50.2,29.68,NNW,340,13.1,16.7,95,0.00,,---,0.43,VWS V14.00,2013-11-22 17:27:00,
2013-11-22 11:32:00,51.4,50.1,29.68,NNE,27,11.4,15.5,95,0.00,,---,0.43,VWS V14.00,2013-11-22 17:32:00,
2013-11-22 11:37:00,51.4,50.1,29.68,North,357,12.1,15.5,95,0.00,,---,0.43,VWS V14.00,2013-11-22 17:37:00,
2013-11-22 11:42:00,51.3,49.9,29.68,NNE,23,16.4,20.7,95,0.00,,---,0.43,VWS V14.00,2013-11-22 17:42:00,
2013-11-22 11:47:00,51.3,49.9,29.68,NNE,27,15.8,19.9,95,0.00,,---,0.43,VWS V14.00,2013-11-22 17:47:00,
2013-11-22 11:52:00,51.3,49.9,29.68,NNW,348,13.1,16.7,95,0.00,,---,0.43,VWS V14.00,2013-11-22 17:52:00,
2013-11-22 11:57:00,51.4,50.1,29.68,North,5,8.1,12.3,95,0.00,,---,0.43,VWS V14.00,2013-11-22 17:57:00,
2013-11-22 12:02:00,51.3,49.9,29.68,North,353,13.1,16.7,95,0.00,,---,0.43,VWS V14.00,2013-11-22 18:02:00,
2013-11-22 12:07:00,50.9,49.5,29.68,NNE,23,14.4,18.3,95,0.00,,---,0.43,VWS V14.00,2013-11-22 18:07:00,
2013-11-22 12:12:00,50.5,49.2,29.68,NNE,17,12.1,15.5,95,0.00,,---,0.43,VWS V14.00,2013-11-22 18:12:00,
2013-11-22 12:17:00,50.5,49.2,29.68,North,0,15.1,19.9,95,0.00,,---,0.43,VWS V14.00,2013-11-22 18:17:00,
2013-11-22 12:22:00,50.7,49.3,29.68,NNE,31,12.1,15.5,95,0.00,,---,0.43,VWS V14.00,2013-11-22 18:22:00,
2013-11-22 12:27:00,50.7,49.3,29.68,NNW,338,15.1,19.1,95,0.00,,---,0.43,VWS V14.00,2013-11-22 18:27:00,
2013-11-22 12:32:00,49.6,48.3,29.68,North,353,22.5,28.0,95,0.00,,---,0.43,VWS V14.00,2013-11-22 18:32:00,
2013-11-22 12:37:00,49.5,48.1,29.68,NNW,342,12.1,19.1,95,0.00,,---,0.43,VWS V14.00,2013-11-22 18:37:00,
2013-11-22 12:42:00,49.3,47.9,29.68,NNW,346,16.4,20.7,95,0.00,,---,0.43,VWS V14.00,2013-11-22 18:42:00,
2013-11-22 12:47:00,48.9,47.5,29.68,NNE,17,22.5,28.0,95,0.00,,---,0.43,VWS V14.00,2013-11-22 18:47:00,
2013-11-22 12:52:00,48.9,47.5,29.68,North,357,16.4,20.7,95,0.00,,---,0.43,VWS V14.00,2013-11-22 18:52:00,
2013-11-22 12:57:00,48.7,47.1,29.68,NNE,15,19.8,24.8,94,0.00,,---,0.43,VWS V14.00,2013-11-22 18:57:00,
2013-11-22 13:02:00,48.7,47.1,29.68,North,357,16.4,24.8,94,0.00,,---,0.43,VWS V14.00,2013-11-22 19:02:00,
2013-11-22 13:07:00,48.7,47.1,29.68,North,353,12.1,15.5,94,0.00,,---,0.43,VWS V14.00,2013-11-22 19:07:00,
2013-11-22 13:12:00,48.2,46.6,29.68,North,0,13.1,20.7,94,0.00,,---,0.43,VWS V14.00,2013-11-22 19:12:00,
2013-11-22 13:17:00,48.0,46.4,29.68,NNW,342,11.4,14.7,94,0.00,,---,0.43,VWS V14.00,2013-11-22 19:17:00,
2013-11-22 13:22:00,47.8,46.2,29.68,NNE,12,11.4,20.7,94,0.00,,---,0.43,VWS V14.00,2013-11-22 19:22:00,
2013-11-22 13:27:00,47.7,46.0,29.68,North,353,12.4,15.9,94,0.00,,---,0.43,VWS V14.00,2013-11-22 19:27:00,
2013-11-22 13:32:00,47.7,46.0,29.68,NW,317,11.4,14.7,94,0.00,,---,0.43,VWS V14.00,2013-11-22 19:32:00,
2013-11-22 13:37:00,47.5,45.8,29.68,North,357,9.4,12.3,94,0.00,,---,0.43,VWS V14.00,2013-11-22 19:37:00,
2013-11-22 13:42:00,47.5,45.8,29.68,NNW,340,15.1,19.1,94,0.00,,---,0.43,VWS V14.00,2013-11-22 19:42:00,
2013-11-22 13:47:00,47.5,45.6,29.68,NNE,17,12.1,16.7,93,0.00,,---,0.43,VWS V14.00,2013-11-22 19:47:00,
2013-11-22 13:52:00,47.3,45.4,29.68,NNE,12,16.4,24.8,93,0.00,,---,0.43,VWS V14.00,2013-11-22 19:52:00,
2013-11-22 13:57:00,47.3,45.4,29.68,NNE,15,19.1,24.0,93,0.00,,---,0.43,VWS V14.00,2013-11-22 19:57:00,
2013-11-22 14:02:00,47.3,45.4,29.68,NNE,19,15.8,24.8,93,0.00,,---,0.43,VWS V14.00,2013-11-22 20:02:00,
2013-11-22 14:07:00,47.1,45.2,29.68,NNE,14,19.1,24.0,93,0.00,,---,0.43,VWS V14.00,2013-11-22 20:07:00,
2013-11-22 14:12:00,47.1,45.2,29.68,NNE,19,15.1,19.1,93,0.00,,---,0.43,VWS V14.00,2013-11-22 20:12:00,
2013-11-22 14:18:00,46.9,45.0,29.68,NNE,14,15.8,19.9,93,0.00,,---,0.43,VWS V14.00,2013-11-22 20:18:00,
2013-11-22 14:23:00,46.9,44.7,29.68,NE,34,15.8,19.9,92,0.00,,---,0.43,VWS V14.00,2013-11-22 20:23:00,
2013-11-22 14:28:00,46.9,44.7,29.68,North,9,18.5,24.0,92,0.00,,---,0.43,VWS V14.00,2013-11-22 20:28:00,
2013-11-22 14:33:00,46.8,44.6,29.68,NNE,24,15.8,19.9,92,0.00,,---,0.43,VWS V14.00,2013-11-22 20:33:00,
2013-11-22 14:38:00,46.8,44.6,29.68,NNE,14,18.5,23.1,92,0.00,,---,0.43,VWS V14.00,2013-11-22 20:38:00,
2013-11-22 14:43:00,46.6,44.4,29.68,NNE,19,16.4,34.0,92,0.00,,---,0.43,VWS V14.00,2013-11-22 20:43:00,
2013-11-22 14:48:00,46.6,44.4,29.68,NNE,13,16.4,20.7,92,0.00,,---,0.43,VWS V14.00,2013-11-22 20:48:00,
2013-11-22 14:53:00,46.6,44.4,29.68,North,8,16.4,22.3,92,0.00,,---,0.43,VWS V14.00,2013-11-22 20:53:00,
2013-11-22 14:58:00,46.4,43.9,29.68,North,10,12.4,15.9,91,0.00,,---,0.43,VWS V14.00,2013-11-22 20:58:00,
2013-11-22 15:03:00,46.4,43.9,29.68,NNE,20,10.1,13.1,91,0.00,,---,0.43,VWS V14.00,2013-11-22 21:03:00,
2013-11-22 15:08:00,46.2,43.7,29.68,North,0,13.1,16.7,91,0.00,,---,0.43,VWS V14.00,2013-11-22 21:08:00,
2013-11-22 15:13:00,46.2,43.7,29.68,NNE,18,11.4,19.9,91,0.00,,---,0.43,VWS V14.00,2013-11-22 21:13:00,
2013-11-22 15:18:00,46.2,43.7,29.68,NNE,20,12.4,15.9,91,0.00,,---,0.43,VWS V14.00,2013-11-22 21:18:00,
2013-11-22 15:23:00,46.0,43.3,29.71,NNE,28,15.1,19.1,90,0.00,,---,0.43,VWS V14.00,2013-11-22 21:23:00,
2013-11-22 15:28:00,45.9,43.1,29.71,NNE,21,15.1,20.7,90,0.00,,---,0.43,VWS V14.00,2013-11-22 21:28:00,
2013-11-22 15:33:00,45.9,43.1,29.71,NNE,17,19.8,24.8,90,0.00,,---,0.43,VWS V14.00,2013-11-22 21:33:00,
2013-11-22 15:38:00,45.9,42.8,29.71,North,0,12.1,16.7,89,0.00,,---,0.43,VWS V14.00,2013-11-22 21:38:00,
2013-11-22 15:43:00,45.9,42.8,29.71,NNE,16,12.1,19.9,89,0.00,,---,0.43,VWS V14.00,2013-11-22 21:43:00,
2013-11-22 15:48:00,45.7,42.6,29.71,North,10,20.5,25.6,89,0.00,,---,0.43,VWS V14.00,2013-11-22 21:48:00,
2013-11-22 15:53:00,45.5,42.5,29.71,NNW,339,15.1,19.1,89,0.00,,---,0.43,VWS V14.00,2013-11-22 21:53:00,
2013-11-22 15:58:00,45.5,42.5,29.71,North,2,12.1,15.5,89,0.00,,---,0.43,VWS V14.00,2013-11-22 21:58:00,
2013-11-22 16:03:00,45.5,42.5,29.71,North,353,16.4,20.7,89,0.00,,---,0.43,VWS V14.00,2013-11-22 22:03:00,
2013-11-22 16:08:00,45.3,42.0,29.71,North,5,12.4,15.9,88,0.00,,---,0.43,VWS V14.00,2013-11-22 22:08:00,
2013-11-22 16:12:00,45.3,42.0,29.71,NNE,14,15.8,19.9,88,0.00,,---,0.43,VWS V14.00,2013-11-22 22:12:00,
2013-11-22 16:17:00,45.3,42.0,29.71,NNE,32,11.4,16.7,88,0.00,,---,0.43,VWS V14.00,2013-11-22 22:17:00,
2013-11-22 16:22:00,45.1,41.8,29.71,NNE,25,15.1,19.1,88,0.00,,---,0.43,VWS V14.00,2013-11-22 22:22:00,
2013-11-22 16:27:00,45.1,41.8,29.71,NNE,25,15.8,19.9,88,0.00,,---,0.43,VWS V14.00,2013-11-22 22:27:00,
2013-11-22 16:32:00,45.0,41.6,29.71,North,357,15.1,19.1,88,0.00,,---,0.43,VWS V14.00,2013-11-22 22:32:00,
2013-11-22 16:37:00,45.0,41.6,29.74,NW,311,12.1,15.5,88,0.00,,---,0.43,VWS V14.00,2013-11-22 22:37:00,
2013-11-22 16:42:00,45.0,41.6,29.74,North,3,15.1,19.9,88,0.00,,---,0.43,VWS V14.00,2013-11-22 22:42:00,
2013-11-22 16:47:00,45.0,41.6,29.74,North,5,11.4,19.9,88,0.00,,---,0.43,VWS V14.00,2013-11-22 22:47:00,
2013-11-22 16:52:00,45.0,41.3,29.74,NNE,25,12.4,23.1,87,0.00,,---,0.43,VWS V14.00,2013-11-22 22:52:00,
2013-11-22 16:57:00,45.0,41.3,29.74,North,353,11.4,19.1,87,0.00,,---,0.43,VWS V14.00,2013-11-22 22:57:00,
2013-11-22 17:02:00,45.0,41.3,29.74,North,9,15.1,20.7,87,0.00,,---,0.43,VWS V14.00,2013-11-22 23:02:00,
2013-11-22 17:07:00,45.0,41.3,29.74,NNE,19,15.1,22.3,87,0.00,,---,0.43,VWS V14.00,2013-11-22 23:07:00,
2013-11-22 17:12:00,45.0,41.3,29.74,North,8,16.4,24.8,87,0.00,,---,0.43,VWS V14.00,2013-11-22 23:12:00,
2013-11-22 17:17:00,45.0,41.3,29.74,NNE,13,16.4,24.8,87,0.00,,---,0.43,VWS V14.00,2013-11-22 23:17:00,
2013-11-22 17:22:00,45.0,41.3,29.74,NNE,17,13.1,20.7,87,0.00,,---,0.43,VWS V14.00,2013-11-22 23:22:00,
2013-11-22 17:27:00,44.8,40.9,29.74,North,1,16.4,20.7,86,0.00,,---,0.43,VWS V14.00,2013-11-22 23:27:00,
2013-11-22 17:32:00,44.8,40.9,29.74,NNE,22,13.1,16.7,86,0.00,,---,0.43,VWS V14.00,2013-11-22 23:32:00,
2013-11-22 17:37:00,44.8,40.9,29.74,North,357,17.8,22.3,86,0.00,,---,0.43,VWS V14.00,2013-11-22 23:37:00,
2013-11-22 17:42:00,44.8,40.9,29.74,NNE,22,19.8,24.8,86,0.00,,---,0.43,VWS V14.00,2013-11-22 23:42:00,
2013-11-22 17:47:00,44.6,40.7,29.74,NNE,26,24.5,30.4,86,0.00,,---,0.43,VWS V14.00,2013-11-22 23:47:00,
2013-11-22 17:52:00,44.6,40.4,29.74,NNE,26,12.4,15.9,85,0.00,,---,0.43,VWS V14.00,2013-11-22 23:52:00,
2013-11-22 17:57:00,44.4,40.5,29.74,North,353,19.8,24.8,86,0.00,,---,0.43,VWS V14.00,2013-11-22 23:57:00,
2013-11-22 18:02:00,44.4,40.2,29.74,North,11,16.4,20.7,85,0.00,,---,0.43,VWS V14.00,2013-11-23 00:02:00,
2013-11-22 18:07:00,44.2,40.0,29.74,North,1,12.1,15.5,85,0.00,,---,0.43,VWS V14.00,2013-11-23 00:07:00,
2013-11-22 18:12:00,44.2,40.0,29.74,NNE,20,15.8,20.7,85,0.00,,---,0.43,VWS V14.00,2013-11-23 00:12:00,
2013-11-22 18:17:00,44.2,40.0,29.74,North,357,19.1,24.0,85,0.00,,---,0.43,VWS V14.00,2013-11-23 00:17:00,
2013-11-22 18:22:00,44.2,40.0,29.74,NNE,18,15.1,24.0,85,0.00,,---,0.43,VWS V14.00,2013-11-23 00:22:00,
2013-11-22 18:27:00,44.2,40.0,29.74,North,5,19.1,24.0,85,0.00,,---,0.43,VWS V14.00,2013-11-23 00:27:00,
2013-11-22 18:32:00,44.2,40.0,29.74,NNE,16,19.8,24.8,85,0.00,,---,0.43,VWS V14.00,2013-11-23 00:32:00,
2013-11-22 18:37:00,44.1,39.5,29.74,North,357,17.1,24.0,84,0.00,,---,0.43,VWS V14.00,2013-11-23 00:37:00,
2013-11-22 18:42:00,43.9,39.4,29.74,NNE,29,12.4,15.9,84,0.00,,---,0.43,VWS V14.00,2013-11-23 00:42:00,
2013-11-22 18:47:00,43.7,39.2,29.74,North,357,18.5,24.8,84,0.00,,---,0.43,VWS V14.00,2013-11-23 00:47:00,
2013-11-22 18:52:00,43.7,39.2,29.74,North,2,13.1,20.7,84,0.00,,---,0.43,VWS V14.00,2013-11-23 00:52:00,
2013-11-22 18:57:00,43.7,38.9,29.74,North,5,15.8,19.9,83,0.00,,---,0.43,VWS V14.00,2013-11-23 00:57:00,
2013-11-22 19:02:00,43.5,38.7,29.74,NNE,33,16.4,31.2,83,0.00,,---,0.43,VWS V14.00,2013-11-23 01:02:00,
2013-11-22 19:07:00,43.5,38.7,29.74,NNE,29,15.1,19.1,83,0.00,,---,0.43,VWS V14.00,2013-11-23 01:07:00,
2013-11-22 19:12:00,43.5,38.7,29.74,NNE,14,16.4,20.7,83,0.00,,---,0.43,VWS V14.00,2013-11-23 01:12:00,
2013-11-22 19:17:00,43.5,38.7,29.74,NNE,23,20.5,25.6,83,0.00,,---,0.43,VWS V14.00,2013-11-23 01:17:00,
2013-11-22 19:22:00,43.5,38.4,29.77,NNE,19,15.8,19.9,82,0.00,,---,0.43,VWS V14.00,2013-11-23 01:22:00,
2013-11-22 19:27:00,43.5,38.4,29.77,NNE,24,15.1,19.1,82,0.00,,---,0.43,VWS V14.00,2013-11-23 01:27:00,
2013-11-22 19:32:00,43.5,38.4,29.77,NNE,14,12.4,20.7,82,0.00,,---,0.43,VWS V14.00,2013-11-23 01:32:00,
2013-11-22 19:37:00,43.5,38.4,29.77,North,357,12.4,15.9,82,0.00,,---,0.43,VWS V14.00,2013-11-23 01:37:00,
2013-11-22 19:42:00,43.3,38.2,29.77,NNE,22,15.8,24.0,82,0.00,,---,0.43,VWS V14.00,2013-11-23 01:42:00,
2013-11-22 19:47:00,43.3,37.9,29.77,North,4,26.2,32.4,81,0.00,,---,0.43,VWS V14.00,2013-11-23 01:47:00,
2013-11-22 19:52:00,43.3,37.9,29.77,NE,35,20.5,32.4,81,0.00,,---,0.43,VWS V14.00,2013-11-23 01:52:00,
2013-11-22 19:57:00,43.2,37.7,29.77,North,4,15.1,21.5,81,0.00,,---,0.43,VWS V14.00,2013-11-23 01:57:00,
2013-11-22 20:02:00,43.0,37.2,29.77,North,11,16.4,24.8,80,0.00,,---,0.43,VWS V14.00,2013-11-23 02:02:00,
2013-11-22 20:08:00,43.0,37.2,29.77,North,11,14.4,20.7,80,0.00,,---,0.43,VWS V14.00,2013-11-23 02:08:00,
2013-11-22 20:13:00,43.0,37.2,29.77,North,10,18.5,24.0,80,0.00,,---,0.43,VWS V14.00,2013-11-23 02:13:00,
2013-11-22 20:18:00,43.0,37.2,29.77,NNE,13,15.1,19.1,80,0.00,,---,0.43,VWS V14.00,2013-11-23 02:18:00,
2013-11-22 20:23:00,43.0,37.2,29.77,NNE,31,12.4,19.9,80,0.00,,---,0.43,VWS V14.00,2013-11-23 02:23:00,
2013-11-22 20:28:00,43.0,37.2,29.77,NE,36,11.4,16.7,80,0.00,,---,0.43,VWS V14.00,2013-11-23 02:28:00,
2013-11-22 20:33:00,43.0,36.9,29.77,NNE,32,13.1,16.7,79,0.00,,---,0.43,VWS V14.00,2013-11-23 02:33:00,
2013-11-22 20:38:00,43.0,36.9,29.77,North,4,17.8,22.3,79,0.00,,---,0.43,VWS V14.00,2013-11-23 02:38:00,
2013-11-22 20:43:00,42.8,36.8,29.77,NNE,24,17.8,28.0,79,0.00,,---,0.43,VWS V14.00,2013-11-23 02:43:00,
2013-11-22 20:48:00,42.8,36.8,29.77,North,11,19.1,24.0,79,0.00,,---,0.43,VWS V14.00,2013-11-23 02:48:00,
2013-11-22 20:53:00,42.8,36.8,29.77,NNE,20,19.8,24.8,79,0.00,,---,0.43,VWS V14.00,2013-11-23 02:53:00,
2013-11-22 20:58:00,42.8,36.4,29.77,North,11,16.4,25.6,78,0.00,,---,0.43,VWS V14.00,2013-11-23 02:58:00,
2013-11-22 21:03:00,42.6,35.9,29.77,NE,36,15.8,23.1,77,0.00,,---,0.43,VWS V14.00,2013-11-23 03:03:00,
2013-11-22 21:08:00,42.6,35.9,29.77,NE,43,23.2,28.8,77,0.00,,---,0.43,VWS V14.00,2013-11-23 03:08:00,
2013-11-22 21:13:00,42.4,35.8,29.77,NNE,32,19.8,24.8,77,0.00,,---,0.43,VWS V14.00,2013-11-23 03:13:00,
2013-11-22 21:18:00,42.4,35.4,29.77,NNE,25,16.4,24.8,76,0.00,,---,0.43,VWS V14.00,2013-11-23 03:18:00,
2013-11-22 21:23:00,42.3,35.2,29.80,NNE,23,23.2,28.8,76,0.00,,---,0.43,VWS V14.00,2013-11-23 03:23:00,
2013-11-22 21:28:00,42.1,35.1,29.80,NE,37,17.1,21.5,76,0.00,,---,0.43,VWS V14.00,2013-11-23 03:28:00,
2013-11-22 21:33:00,42.1,35.1,29.80,NE,38,17.1,21.5,76,0.00,,---,0.43,VWS V14.00,2013-11-23 03:33:00,
2013-11-22 21:38:00,41.9,35.2,29.80,NNE,33,19.1,24.0,77,0.00,,---,0.43,VWS V14.00,2013-11-23 03:38:00,
2013-11-22 21:43:00,41.7,35.0,29.77,NE,34,19.1,24.0,77,0.00,,---,0.43,VWS V14.00,2013-11-23 03:43:00,
2013-11-22 21:48:00,41.7,35.0,29.77,NNE,27,19.1,28.8,77,0.00,,---,0.43,VWS V14.00,2013-11-23 03:48:00,
2013-11-22 21:53:00,41.7,35.0,29.77,NNE,16,15.8,19.9,77,0.00,,---,0.43,VWS V14.00,2013-11-23 03:53:00,
2013-11-22 21:58:00,41.5,34.9,29.77,NNE,16,17.1,21.5,77,0.00,,---,0.43,VWS V14.00,2013-11-23 03:58:00,
2013-11-22 22:03:00,41.5,34.9,29.77,NNE,13,16.4,20.7,77,0.00,,---,0.43,VWS V14.00,2013-11-23 04:03:00,
2013-11-22 22:08:00,41.5,34.9,29.77,NNE,17,19.1,24.8,77,0.00,,---,0.43,VWS V14.00,2013-11-23 04:08:00,
2013-11-22 22:13:00,41.5,35.2,29.77,North,8,16.4,20.7,78,0.00,,---,0.43,VWS V14.00,2013-11-23 04:13:00,
2013-11-22 22:18:00,41.5,35.2,29.77,NNE,21,15.1,19.1,78,0.00,,---,0.43,VWS V14.00,2013-11-23 04:18:00,
2013-11-22 22:23:00,41.5,35.2,29.77,NE,42,19.1,24.0,78,0.00,,---,0.43,VWS V14.00,2013-11-23 04:23:00,
2013-11-22 22:28:00,41.5,35.2,29.77,NNE,31,13.1,16.7,78,0.00,,---,0.43,VWS V14.00,2013-11-23 04:28:00,
2013-11-22 22:33:00,41.5,35.5,29.77,NNE,26,19.1,24.0,79,0.00,,---,0.43,VWS V14.00,2013-11-23 04:33:00,
2013-11-22 22:38:00,41.5,35.5,29.77,NNE,32,16.4,20.7,79,0.00,,---,0.43,VWS V14.00,2013-11-23 04:38:00,
2013-11-22 22:43:00,41.5,35.5,29.77,NE,37,15.8,19.9,79,0.00,,---,0.43,VWS V14.00,2013-11-23 04:43:00,
2013-11-22 22:48:00,41.5,35.5,29.77,NNE,23,13.1,16.7,79,0.00,,---,0.43,VWS V14.00,2013-11-23 04:48:00,
2013-11-22 22:53:00,41.5,35.5,29.77,NE,35,10.1,17.5,79,0.00,,---,0.43,VWS V14.00,2013-11-23 04:53:00,
2013-11-22 22:58:00,41.5,35.5,29.77,NNE,19,14.4,18.3,79,0.00,,---,0.43,VWS V14.00,2013-11-23 04:58:00,
2013-11-22 23:01:00,41.5,35.5,29.77,NNE,16,13.1,16.7,79,0.00,,---,0.43,VWS V14.00,2013-11-23 05:01:00,
2013-11-22 23:02:00,41.5,35.8,29.77,NNE,16,13.1,16.7,80,0.00,,---,0.43,VWS V14.00,2013-11-23 05:02:00,
2013-11-22 23:07:00,41.5,35.8,29.77,NE,41,10.7,13.9,80,0.00,,---,0.43,VWS V14.00,2013-11-23 05:07:00,
2013-11-22 23:12:00,41.5,35.8,29.77,NNE,14,12.1,15.5,80,0.00,,---,0.43,VWS V14.00,2013-11-23 05:12:00,
2013-11-22 23:17:00,41.5,35.8,29.77,NNE,24,12.4,19.1,80,0.00,,---,0.43,VWS V14.00,2013-11-23 05:17:00,
2013-11-22 23:22:00,41.5,35.8,29.77,NNE,29,12.1,16.7,80,0.00,,---,0.43,VWS V14.00,2013-11-23 05:22:00,
2013-11-22 23:27:00,41.5,35.8,29.77,NNE,23,12.1,15.5,80,0.00,,---,0.43,VWS V14.00,2013-11-23 05:27:00,
2013-11-22 23:32:00,41.5,35.8,29.77,NNE,21,12.1,15.5,80,0.00,,---,0.43,VWS V14.00,2013-11-23 05:32:00,
2013-11-22 23:37:00,41.5,35.8,29.77,NNE,29,12.4,15.9,80,0.00,,---,0.43,VWS V14.00,2013-11-23 05:37:00,
2013-11-22 23:42:00,41.5,35.8,29.77,NE,34,13.1,18.3,80,0.00,,---,0.43,VWS V14.00,2013-11-23 05:42:00,
2013-11-22 23:47:00,41.5,35.8,29.77,NNE,30,13.1,19.1,80,0.00,,---,0.43,VWS V14.00,2013-11-23 05:47:00,
2013-11-22 23:52:00,41.5,35.8,29.77,NNE,30,12.1,20.7,80,0.00,,---,0.43,VWS V14.00,2013-11-23 05:52:00,
2013-11-22 23:57:00,41.5,35.8,29.77,NE,36,12.4,15.9,80,0.00,,---,0.43,VWS V14.00,2013-11-23 05:57:00,